SCP
0 1 1 2 1 2 1 1 0 0 0 0 0 0 0 0 0 0 0 0 0 0 0 0 0 0 0 0 0 0 0 0 0 0 0 0 0 0 0 0 0 0 0
0 0 1 1 1 1 1 0 0 0 0 0 0 0 0 0 0 0 0 0 0 0 0 0 0 0 0 0 0 0 0 0 0 0 0 0 0 0 0 0 0 0 0
0 0 0 1 2 1 1 0 0 0 0 0 0 0 0 0 0 0 0 0 0 0 0 0 0 0 0 0 0 0 0 0 0 0 0 0 0 0 0 0 0 0 0
0 0 0 0 1 2 2 0 0 0 0 0 0 0 0 0 0 0 0 0 0 0 0 0 0 0 0 0 0 0 0 0 0 0 0 0 0 0 0 0 0 0 0
0 0 0 0 0 0 0 0 0 0 0 0 0 0 0 0 0 0 0 0 0 0 0 0 0 0 0 0 0 0 0 0 0 0 0 0 0 0 0 0 0 0 0
0 0 0 0 0 0 0 0 0 0 0 0 0 0 0 0 0 0 0 0 0 0 0 0 0 0 0 0 0 0 0 0 0 0 0 0 0 0 0 0 0 0 0
0 0 0 0 0 0 0 0 0 0 0 0 0 0 0 0 0 0 0 0 0 0 0 0 0 0 0 0 0 0 0 0 0 0 0 0 0 0 0 0 0 0 0
-0 -0 -0 0 0 0 0 0 0 0 0 0 0 0 0 0 0 0 0 0 0 0 0 0 0 0 0 0 0 0 0 0 0 0 0 0 0 0 0 0 0 0 0
-0 -0 -0 -0 -0 -0 0 0 0 0 -0 -0 -0 0 -0 -0 0 0 0 0 0 0 0 0 0 0 0 0 0 0 0 0 0 0 0 0 0 0 0 0 0 0 0
0 -0 -0 -0 -0 -0 -0 -0 -0 -0 -0 -0 -0 -0 -0 0 0 0 0 0 0 0 0 0 0 0 0 0 0 0 0 0 0 0 0 0 0 0 0 0 0 0 0
0 -0 -0 -0 0 0 -0 -0 -0 -0 -0 -0 -0 0 0 0 0 0 0 0 0 0 0 0 0 0 0 0 0 0 0 0 0 0 0 0 0 0 0 0 0 0 0
-0 0 0 0 0 0 0 0 0 0 -0 0 0 0 0 0 0 0 0 0 0 0 0 0 0 0 0 0 0 0 0 0 0 0 0 0 0 0 0 0 0 0 0
0 -0 0 0 0 0 0 0 0 0 0 0 0 0 0 0 0 0 0 0 0 0 0 0 0 0 0 0 0 0 0 0 0 0 0 0 0 0 0 0 0 0 0
0 0 0 0 0 0 0 0 0 0 0 0 0 0 0 0 0 0 0 0 0 0 0 0 0 0 0 0 0 0 0 0 0 0 0 0 0 0 0 0 0 0 0
0 0 0 0 0 0 0 0 0 0 0 0 0 0 0 0 0 0 0 0 0 0 0 0 0 0 0 0 0 0 0 0 0 0 0 0 0 0 0 0 0 0 0
0 0 0 0 0 0 0 0 0 0 0 0 0 0 0 0 0 0 0 0 0 0 0 0 0 0 0 0 0 0 0 0 0 0 0 0 0 0 0 0 0 0 0
0 0 0 0 0 0 0 0 0 0 0 0 0 0 0 0 0 0 0 0 0 0 0 0 0 0 0 0 0 0 0 0 0 0 0 0 0 0 0 0 0 0 0
0 0 0 0 0 0 0 0 0 0 0 0 0 0 0 0 0 0 0 0 0 0 0 0 0 0 0 0 0 0 0 0 0 0 0 0 0 0 0 0 0 0 0
0 0 0 0 0 0 0 0 0 0 0 0 0 0 0 0 0 0 0 0 0 0 0 0 0 0 0 0 0 0 0 0 0 0 0 0 0 0 0 0 0 0 0
0 0 0 0 0 0 0 0 0 0 0 0 0 0 0 0 0 0 0 0 0 0 0 0 0 0 0 0 0 0 0 0 0 0 0 0 0 0 0 0 0 0 0
0 0 0 0 0 0 0 0 0 0 0 0 0 0 0 0 0 0 0 0 0 0 0 0 0 0 0 0 0 0 0 0 0 0 0 0 0 0 0 0 0 0 0
0 0 0 0 0 0 0 0 0 0 0 0 0 0 0 0 0 0 0 0 0 0 0 0 0 0 0 0 0 0 0 0 0 0 0 0 0 0 0 0 0 0 0
0 0 0 0 0 0 0 0 0 0 0 0 0 0 0 0 0 0 0 0 0 0 0 0 0 0 0 0 0 0 0 0 0 0 0 0 0 0 0 0 0 0 0
0 0 0 0 0 0 0 0 0 0 0 0 0 0 0 0 0 0 0 0 0 0 0 0 0 0 0 0 0 0 0 0 0 0 0 0 0 0 0 0 0 0 0
0 0 0 0 0 0 0 0 0 0 0 0 0 0 0 0 0 0 0 0 0 0 0 0 0 0 0 0 0 0 0 0 0 0 0 0 0 0 0 0 0 0 0
0 0 0 0 0 0 0 0 0 0 0 0 0 0 0 0 0 0 0 0 0 0 0 0 0 0 0 0 0 0 0 0 0 0 0 0 0 0 0 0 0 0 0
Wind_Speed_500mb
54 62 70 79 82 88 84 83 79 73 76 79 76 70 70 65 61 54 49 47 48 48 46 42 38 34 32 29 25 22 18 16 15 16 18 18 15 15 13 11 7 5 6
21 43 58 72 84 91 87 88 85 80 82 80 75 71 71 63 55 49 48 46 47 47 44 39 35 32 31 28 26 23 20 19 23 21 21 21 15 18 16 15 13 10 8
23 21 44 64 75 90 96 92 92 77 79 83 80 71 63 57 56 53 50 48 48 45 41 37 34 31 30 28 27 25 24 25 27 26 17 12 14 28 17 17 15 13 12
33 32 32 54 73 84 89 96 93 85 88 84 81 73 60 51 54 56 48 48 45 42 41 38 36 33 31 29 29 28 27 27 27 31 35 23 14 18 18 22 22 21 18
27 24 16 35 58 61 69 83 85 86 88 89 81 71 69 62 56 46 41 42 43 41 38 37 35 34 35 34 32 31 29 28 29 27 31 35 29 26 19 26 27 25 21
19 16 9 17 27 41 49 56 64 72 79 78 67 63 58 52 36 35 30 36 36 36 37 39 39 38 35 34 30 29 28 28 28 28 27 28 24 25 27 21 32 28 22
20 19 16 12 19 22 27 36 36 38 37 34 33 27 22 24 25 19 24 26 28 34 34 39 38 35 34 33 30 29 27 25 25 26 26 23 23 22 24 25 28 25 25
31 30 26 18 16 18 21 26 36 41 30 23 21 20 13 12 4 22 24 14 21 26 28 35 36 33 34 35 32 27 25 24 24 23 21 21 20 19 18 19 22 21 24
32 39 40 39 49 38 26 20 17 19 12 1 5 9 11 16 16 18 32 22 20 25 28 30 36 35 34 32 29 27 24 23 22 19 18 18 19 19 20 18 17 20 18
32 37 42 50 35 28 25 13 12 15 14 17 16 28 22 32 27 39 40 28 31 30 33 31 35 32 30 30 27 23 22 21 18 16 17 19 19 19 19 20 21 20 19
33 33 28 29 27 25 23 17 8 14 17 15 21 26 25 29 42 53 41 32 36 36 35 27 27 23 26 29 30 29 25 19 18 18 17 18 19 21 19 18 19 19 18
27 26 23 24 28 25 22 21 19 21 25 21 18 23 35 33 33 45 39 31 35 35 33 29 34 38 28 35 32 28 24 22 20 20 18 17 17 18 18 18 19 19 19
28 27 27 29 28 30 31 30 33 33 29 23 22 26 33 32 32 43 34 30 35 37 36 36 33 33 35 37 37 39 35 21 27 26 22 18 18 18 19 19 18 19 19
34 26 14 20 20 25 27 32 35 37 39 37 32 30 27 25 32 30 23 26 29 28 30 34 36 38 42 46 49 46 36 31 25 25 19 18 16 16 17 17 16 17 17
44 39 31 23 26 32 31 31 31 32 34 35 31 29 27 27 23 19 18 23 28 30 32 33 34 37 41 43 42 37 32 19 21 21 17 14 13 12 14 15 14 13 15
65 51 38 32 31 35 41 39 36 36 35 34 31 30 30 28 24 19 17 24 32 34 31 29 34 34 35 35 28 25 30 19 21 16 12 10 12 10 9 12 13 12 12
71 56 53 39 37 43 45 48 45 43 42 40 39 37 36 34 32 32 34 32 32 33 35 34 30 28 26 25 24 32 34 26 17 14 11 11 11 10 10 8 7 7 7
47 38 34 38 43 44 48 51 53 52 49 48 45 44 40 39 38 37 37 35 34 34 34 30 28 24 23 22 22 27 27 24 20 15 12 15 12 11 10 8 5 3 2
47 37 37 41 49 50 53 56 59 60 57 50 48 46 44 41 39 34 33 34 35 34 33 30 26 24 23 23 21 26 30 24 19 14 16 15 13 12 10 10 7 5 3
49 44 45 44 49 54 54 56 59 61 62 57 49 48 44 40 37 35 34 35 34 32 31 29 27 24 24 25 23 27 30 26 20 19 19 18 15 13 10 11 10 8 6
46 37 39 45 54 54 54 57 56 58 53 47 45 48 44 42 42 40 40 37 37 35 34 32 31 32 31 30 28 28 27 25 24 22 20 19 15 13 12 11 12 12 9
49 40 45 52 57 57 56 55 55 49 45 45 46 44 44 45 44 44 45 43 41 40 38 39 39 38 37 36 33 31 29 28 26 22 21 19 17 17 16 15 14 12 9
52 53 57 61 61 58 55 51 49 46 44 44 42 41 43 46 47 47 47 45 44 45 47 48 47 45 43 42 37 31 29 30 27 24 22 23 23 22 20 18 16 12 11
53 64 66 64 59 52 49 44 41 36 36 35 35 37 42 42 39 42 44 45 48 50 50 51 50 47 46 45 40 35 30 29 31 27 27 25 25 24 21 18 14 15 14
55 65 67 61 53 49 44 38 32 30 28 27 29 30 32 34 36 40 41 42 46 47 44 46 47 47 48 43 38 38 38 28 29 29 28 24 25 25 22 20 17 18 16
53 67 60 53 47 44 39 36 33 29 27 29 27 28 31 34 36 37 39 42 37 31 32 35 33 35 34 31 34 37 33 31 33 37 34 27 24 24 23 21 20 20 17
Wind_Direction_500mb
244 240 236 237 236 236 233 229 221 219 217 215 215 216 217 218 221 224 229 231 232 234 238 235 230 226 221 218 218 219 216 210 199 193 162 158 167 176 184 199 209 237 280
244 242 240 239 240 238 232 231 226 219 217 219 221 220 217 215 222 226 230 231 232 233 235 236 233 225 221 219 213 212 212 209 200 207 179 157 169 188 195 209 219 231 253
295 252 234 239 241 236 233 231 233 231 225 219 220 218 215 219 224 226 227 230 228 227 228 230 226 225 222 217 214 216 215 217 214 210 208 174 191 179 186 204 210 218 235
310 286 253 236 240 238 233 232 233 232 226 224 222 222 225 230 243 235 235 230 229 227 227 224 224 220 221 219 218 219 220 226 231 226 227 230 218 180 175 194 205 215 228
345 336 247 235 229 219 220 224 223 223 225 218 219 218 226 223 223 222 222 227 231 230 229 226 223 222 222 222 218 218 221 226 232 230 233 240 238 216 198 194 200 212 222
43 50 115 181 198 209 210 208 208 208 209 210 206 207 208 214 219 215 222 236 236 236 233 232 225 222 223 222 221 222 223 224 229 235 237 236 229 227 220 209 204 214 214
87 89 103 150 179 204 202 199 199 199 201 196 201 213 219 243 221 215 228 234 251 250 244 238 235 230 229 229 225 223 224 221 227 231 234 234 238 234 223 227 205 201 204
105 103 106 114 136 158 162 137 120 105 74 69 48 337 356 251 214 245 234 217 249 250 246 245 239 232 231 231 228 224 224 226 227 227 227 228 235 243 245 234 226 207 204
125 120 120 120 122 109 104 91 95 35 30 13 182 174 209 239 233 230 238 234 239 241 240 241 246 240 235 234 230 227 224 222 225 223 229 236 237 241 242 245 242 235 220
134 135 136 137 137 129 123 105 68 64 99 144 167 222 215 230 229 230 237 241 238 235 237 233 240 238 236 236 234 232 228 223 225 238 239 238 239 239 239 242 246 248 245
155 152 151 156 162 158 157 143 154 130 136 158 198 212 221 229 236 234 236 237 243 238 230 229 234 241 247 251 239 225 221 232 241 248 249 242 239 234 233 236 244 251 255
195 199 203 199 202 208 207 220 199 173 167 181 191 212 234 233 239 249 246 237 237 236 240 240 247 260 244 229 224 228 226 223 245 244 251 248 246 250 249 246 249 254 258
191 207 212 224 232 233 229 220 217 216 213 211 215 221 231 235 237 240 236 228 224 234 241 246 257 262 235 232 237 249 239 226 241 250 246 247 250 251 254 255 254 252 254
210 216 237 256 259 255 232 220 216 213 215 214 214 218 221 217 221 224 224 224 228 241 250 251 255 247 233 242 252 248 228 219 232 248 255 254 248 249 256 256 255 255 255
229 233 253 267 259 247 239 228 220 215 210 207 207 210 209 209 213 214 219 221 229 249 252 252 247 248 252 258 249 244 235 201 239 251 246 244 239 239 250 256 255 263 267
229 242 253 269 242 238 232 228 223 223 222 218 217 217 217 216 213 209 214 221 229 235 239 247 260 263 265 266 257 232 191 202 231 228 226 241 261 267 265 262 260 263 268
241 244 257 266 247 232 225 224 223 222 224 225 224 224 224 222 221 224 226 229 236 240 243 259 257 265 262 255 230 216 197 196 214 231 237 250 264 273 257 261 271 275 268
253 252 252 252 248 238 225 222 224 223 225 226 226 226 227 229 232 233 235 239 242 250 256 252 252 250 250 241 230 218 208 206 220 246 259 268 265 258 254 257 259 266 291
259 258 258 255 248 240 227 222 220 222 224 229 230 230 231 233 238 241 247 254 254 254 250 248 244 241 246 235 220 217 213 205 227 242 265 273 265 255 244 238 223 195 192
249 251 248 243 235 230 227 219 218 222 225 230 234 234 232 232 237 243 243 249 256 252 248 242 238 236 234 230 224 220 219 211 222 250 266 270 248 236 217 212 187 174 181
259 244 233 217 217 222 218 210 216 221 226 232 234 232 230 226 232 236 243 248 250 247 243 239 235 233 230 234 226 223 217 219 220 246 256 249 233 210 200 199 181 173 172
260 239 222 210 210 205 206 212 220 223 221 225 228 227 223 218 223 235 240 241 245 242 239 236 229 226 228 233 230 229 234 224 229 234 235 225 214 204 195 188 177 176 175
244 222 207 201 194 195 204 210 216 214 218 223 226 225 221 216 220 232 238 238 240 240 240 233 226 224 224 227 236 238 233 225 219 216 216 205 200 198 194 188 185 176 177
245 220 201 197 198 199 205 208 212 216 221 222 223 223 224 219 223 237 240 240 240 239 237 231 227 226 225 226 226 231 227 209 213 208 205 200 197 193 192 195 189 186 184
245 219 205 198 201 208 211 215 216 217 219 222 222 219 221 225 229 237 240 246 250 251 248 241 237 231 227 231 231 223 225 216 211 209 209 204 198 192 193 194 195 193 190
234 213 204 200 206 216 214 214 216 219 224 227 227 230 220 226 230 234 241 245 242 243 243 239 242 237 232 233 223 214 212 211 214 211 213 207 202 202 202 201 202 198 195
Wind_Speed_850mb
54 62 70 79 82 88 84 83 79 73 76 79 76 70 70 65 61 54 49 47 48 48 46 42 38 34 32 29 25 22 18 16 15 16 18 18 15 15 13 11 7 5 6
21 43 58 72 84 91 87 88 85 80 82 80 75 71 71 63 55 49 48 46 47 47 44 39 35 32 31 28 26 23 20 19 23 21 21 21 15 18 16 15 13 10 8
23 21 44 64 75 90 96 92 92 77 79 83 80 71 63 57 56 53 50 48 48 45 41 37 34 31 30 28 27 25 24 25 27 26 17 12 14 28 17 17 15 13 12
33 32 32 54 73 84 89 96 93 85 88 84 81 73 60 51 54 56 48 48 45 42 41 38 36 33 31 29 29 28 27 27 27 31 35 23 14 18 18 22 22 21 18
27 24 16 35 58 61 69 83 85 86 88 89 81 71 69 62 56 46 41 42 43 41 38 37 35 34 35 34 32 31 29 28 29 27 31 35 29 26 19 26 27 25 21
19 16 9 17 27 41 49 56 64 72 79 78 67 63 58 52 36 35 30 36 36 36 37 39 39 38 35 34 30 29 28 28 28 28 27 28 24 25 27 21 32 28 22
20 19 16 12 19 22 27 36 36 38 37 34 33 27 22 24 25 19 24 26 28 34 34 39 38 35 34 33 30 29 27 25 25 26 26 23 23 22 24 25 28 25 25
31 30 26 18 16 18 21 26 36 41 30 23 21 20 13 12 4 22 24 14 21 26 28 35 36 33 34 35 32 27 25 24 24 23 21 21 20 19 18 19 22 21 24
32 39 40 39 49 38 26 20 17 19 12 1 5 9 11 16 16 18 32 22 20 25 28 30 36 35 34 32 29 27 24 23 22 19 18 18 19 19 20 18 17 20 18
32 37 42 50 35 28 25 13 12 15 14 17 16 28 22 32 27 39 40 28 31 30 33 31 35 32 30 30 27 23 22 21 18 16 17 19 19 19 19 20 21 20 19
33 33 28 29 27 25 23 17 8 14 17 15 21 26 25 29 42 53 41 32 36 36 35 27 27 23 26 29 30 29 25 19 18 18 17 18 19 21 19 18 19 19 18
27 26 23 24 28 25 22 21 19 21 25 21 18 23 35 33 33 45 39 31 35 35 33 29 34 38 28 35 32 28 24 22 20 20 18 17 17 18 18 18 19 19 19
28 27 27 29 28 30 31 30 33 33 29 23 22 26 33 32 32 43 34 30 35 37 36 36 33 33 35 37 37 39 35 21 27 26 22 18 18 18 19 19 18 19 19
34 26 14 20 20 25 27 32 35 37 39 37 32 30 27 25 32 30 23 26 29 28 30 34 36 38 42 46 49 46 36 31 25 25 19 18 16 16 17 17 16 17 17
44 39 31 23 26 32 31 31 31 32 34 35 31 29 27 27 23 19 18 23 28 30 32 33 34 37 41 43 42 37 32 19 21 21 17 14 13 12 14 15 14 13 15
65 51 38 32 31 35 41 39 36 36 35 34 31 30 30 28 24 19 17 24 32 34 31 29 34 34 35 35 28 25 30 19 21 16 12 10 12 10 9 12 13 12 12
71 56 53 39 37 43 45 48 45 43 42 40 39 37 36 34 32 32 34 32 32 33 35 34 30 28 26 25 24 32 34 26 17 14 11 11 11 10 10 8 7 7 7
47 38 34 38 43 44 48 51 53 52 49 48 45 44 40 39 38 37 37 35 34 34 34 30 28 24 23 22 22 27 27 24 20 15 12 15 12 11 10 8 5 3 2
47 37 37 41 49 50 53 56 59 60 57 50 48 46 44 41 39 34 33 34 35 34 33 30 26 24 23 23 21 26 30 24 19 14 16 15 13 12 10 10 7 5 3
49 44 45 44 49 54 54 56 59 61 62 57 49 48 44 40 37 35 34 35 34 32 31 29 27 24 24 25 23 27 30 26 20 19 19 18 15 13 10 11 10 8 6
46 37 39 45 54 54 54 57 56 58 53 47 45 48 44 42 42 40 40 37 37 35 34 32 31 32 31 30 28 28 27 25 24 22 20 19 15 13 12 11 12 12 9
49 40 45 52 57 57 56 55 55 49 45 45 46 44 44 45 44 44 45 43 41 40 38 39 39 38 37 36 33 31 29 28 26 22 21 19 17 17 16 15 14 12 9
52 53 57 61 61 58 55 51 49 46 44 44 42 41 43 46 47 47 47 45 44 45 47 48 47 45 43 42 37 31 29 30 27 24 22 23 23 22 20 18 16 12 11
53 64 66 64 59 52 49 44 41 36 36 35 35 37 42 42 39 42 44 45 48 50 50 51 50 47 46 45 40 35 30 29 31 27 27 25 25 24 21 18 14 15 14
55 65 67 61 53 49 44 38 32 30 28 27 29 30 32 34 36 40 41 42 46 47 44 46 47 47 48 43 38 38 38 28 29 29 28 24 25 25 22 20 17 18 16
53 67 60 53 47 44 39 36 33 29 27 29 27 28 31 34 36 37 39 42 37 31 32 35 33 35 34 31 34 37 33 31 33 37 34 27 24 24 23 21 20 20 17
Wind_Direction_850mb
244 240 236 237 236 236 233 229 221 219 217 215 215 216 217 218 221 224 229 231 232 234 238 235 230 226 221 218 218 219 216 210 199 193 162 158 167 176 184 199 209 237 280
244 242 240 239 240 238 232 231 226 219 217 219 221 220 217 215 222 226 230 231 232 233 235 236 233 225 221 219 213 212 212 209 200 207 179 157 169 188 195 209 219 231 253
295 252 234 239 241 236 233 231 233 231 225 219 220 218 215 219 224 226 227 230 228 227 228 230 226 225 222 217 214 216 215 217 214 210 208 174 191 179 186 204 210 218 235
310 286 253 236 240 238 233 232 233 232 226 224 222 222 225 230 243 235 235 230 229 227 227 224 224 220 221 219 218 219 220 226 231 226 227 230 218 180 175 194 205 215 228
345 336 247 235 229 219 220 224 223 223 225 218 219 218 226 223 223 222 222 227 231 230 229 226 223 222 222 222 218 218 221 226 232 230 233 240 238 216 198 194 200 212 222
43 50 115 181 198 209 210 208 208 208 209 210 206 207 208 214 219 215 222 236 236 236 233 232 225 222 223 222 221 222 223 224 229 235 237 236 229 227 220 209 204 214 214
87 89 103 150 179 204 202 199 199 199 201 196 201 213 219 243 221 215 228 234 251 250 244 238 235 230 229 229 225 223 224 221 227 231 234 234 238 234 223 227 205 201 204
105 103 106 114 136 158 162 137 120 105 74 69 48 337 356 251 214 245 234 217 249 250 246 245 239 232 231 231 228 224 224 226 227 227 227 228 235 243 245 234 226 207 204
125 120 120 120 122 109 104 91 95 35 30 13 182 174 209 239 233 230 238 234 239 241 240 241 246 240 235 234 230 227 224 222 225 223 229 236 237 241 242 245 242 235 220
134 135 136 137 137 129 123 105 68 64 99 144 167 222 215 230 229 230 237 241 238 235 237 233 240 238 236 236 234 232 228 223 225 238 239 238 239 239 239 242 246 248 245
155 152 151 156 162 158 157 143 154 130 136 158 198 212 221 229 236 234 236 237 243 238 230 229 234 241 247 251 239 225 221 232 241 248 249 242 239 234 233 236 244 251 255
195 199 203 199 202 208 207 220 199 173 167 181 191 212 234 233 239 249 246 237 237 236 240 240 247 260 244 229 224 228 226 223 245 244 251 248 246 250 249 246 249 254 258
191 207 212 224 232 233 229 220 217 216 213 211 215 221 231 235 237 240 236 228 224 234 241 246 257 262 235 232 237 249 239 226 241 250 246 247 250 251 254 255 254 252 254
210 216 237 256 259 255 232 220 216 213 215 214 214 218 221 217 221 224 224 224 228 241 250 251 255 247 233 242 252 248 228 219 232 248 255 254 248 249 256 256 255 255 255
229 233 253 267 259 247 239 228 220 215 210 207 207 210 209 209 213 214 219 221 229 249 252 252 247 248 252 258 249 244 235 201 239 251 246 244 239 239 250 256 255 263 267
229 242 253 269 242 238 232 228 223 223 222 218 217 217 217 216 213 209 214 221 229 235 239 247 260 263 265 266 257 232 191 202 231 228 226 241 261 267 265 262 260 263 268
241 244 257 266 247 232 225 224 223 222 224 225 224 224 224 222 221 224 226 229 236 240 243 259 257 265 262 255 230 216 197 196 214 231 237 250 264 273 257 261 271 275 268
253 252 252 252 248 238 225 222 224 223 225 226 226 226 227 229 232 233 235 239 242 250 256 252 252 250 250 241 230 218 208 206 220 246 259 268 265 258 254 257 259 266 291
259 258 258 255 248 240 227 222 220 222 224 229 230 230 231 233 238 241 247 254 254 254 250 248 244 241 246 235 220 217 213 205 227 242 265 273 265 255 244 238 223 195 192
249 251 248 243 235 230 227 219 218 222 225 230 234 234 232 232 237 243 243 249 256 252 248 242 238 236 234 230 224 220 219 211 222 250 266 270 248 236 217 212 187 174 181
259 244 233 217 217 222 218 210 216 221 226 232 234 232 230 226 232 236 243 248 250 247 243 239 235 233 230 234 226 223 217 219 220 246 256 249 233 210 200 199 181 173 172
260 239 222 210 210 205 206 212 220 223 221 225 228 227 223 218 223 235 240 241 245 242 239 236 229 226 228 233 230 229 234 224 229 234 235 225 214 204 195 188 177 176 175
244 222 207 201 194 195 204 210 216 214 218 223 226 225 221 216 220 232 238 238 240 240 240 233 226 224 224 227 236 238 233 225 219 216 216 205 200 198 194 188 185 176 177
245 220 201 197 198 199 205 208 212 216 221 222 223 223 224 219 223 237 240 240 240 239 237 231 227 226 225 226 226 231 227 209 213 208 205 200 197 193 192 195 189 186 184
245 219 205 198 201 208 211 215 216 217 219 222 222 219 221 225 229 237 240 246 250 251 248 241 237 231 227 231 231 223 225 216 211 209 209 204 198 192 193 194 195 193 190
234 213 204 200 206 216 214 214 216 219 224 227 227 230 220 226 230 234 241 245 242 243 243 239 242 237 232 233 223 214 212 211 214 211 213 207 202 202 202 201 202 198 195